| time (UTC) | temp F | wind direction | speed MPH | gust MPH | rain 1hr in | rain 24hr in | rain mn in | humidity % | barometer mb |
| 20260904022625 | 69 | 348 | 1.0 | 5.0 | 0.00 | 0.00 | 0.00 | 49 | 929.4 |
| 20260904022028 | 69 | 348 | 2.0 | 5.0 | 0.00 | 0.00 | 0.00 | 49 | 929.2 |
| 20260904021524 | 70 | 360 | 0.0 | 2.0 | 0.00 | 0.00 | 0.00 | 49 | 929.1 |
| 20260904021026 | 70 | 360 | 0.0 | 4.0 | 0.00 | 0.00 | 0.00 | 47 | 929.1 |
| 20260904020523 | 71 | 360 | 1.0 | 6.0 | 0.00 | 0.00 | 0.00 | 46 | 929.0 |
| 20260904020024 | 72 | 360 | 3.0 | 6.0 | 0.00 | 0.00 | 0.00 | 47 | 929.0 |
| 20260904015527 | 72 | 360 | 2.0 | 3.0 | 0.00 | 0.00 | 0.00 | 50 | 929.0 |
| 20260904015022 | 73 | 360 | 1.0 | 6.0 | 0.00 | 0.00 | 0.00 | 51 | 928.8 |
| 20260904014522 | 74 | 360 | 2.0 | 6.0 | 0.00 | 0.00 | 0.00 | 49 | 928.6 |
| 20260904014021 | 75 | 360 | 0.0 | 0.0 | 0.00 | 0.00 | 0.00 | 55 | 928.7 |
| 20260904013520 | 75 | 5 | 0.0 | 2.0 | 0.00 | 0.00 | 0.00 | 54 | 928.4 |
| 20260904013020 | 75 | 5 | 0.0 | 5.0 | 0.00 | 0.00 | 0.00 | 53 | 928.5 |
| 20260904012620 | 76 | 5 | 1.0 | 4.0 | 0.00 | 0.00 | 0.00 | 51 | 928.3 |
| 20260904012019 | 76 | 329 | 1.0 | 3.0 | 0.00 | 0.00 | 0.00 | 51 | 928.4 |
| 20260904011552 | 77 | 329 | 1.0 | 7.0 | 0.00 | 0.00 | 0.00 | 44 | 928.3 |
| 20260904011019 | 78 | 326 | 4.0 | 7.0 | 0.00 | 0.00 | 0.00 | 39 | 928.2 |
| 20260904010519 | 79 | 304 | 3.0 | 5.0 | 0.00 | 0.00 | 0.00 | 39 | 928.1 |
| 20260904010021 | 81 | 299 | 1.0 | 5.0 | 0.00 | 0.00 | 0.00 | 36 | 928.1 |
| 20260904005524 | 81 | 299 | 3.0 | 9.0 | 0.00 | 0.00 | 0.00 | 36 | 928.1 |
| 20260904005018 | 82 | 298 | 5.0 | 9.0 | 0.00 | 0.00 | 0.00 | 35 | 928.0 |
| 20260904004518 | 82 | 290 | 5.0 | 10.0 | 0.00 | 0.00 | 0.00 | 34 | 927.9 |
| 20260904004021 | 83 | 286 | 7.0 | 12.0 | 0.00 | 0.00 | 0.00 | 33 | 927.9 |
| 20260904003525 | 84 | 309 | 7.0 | 12.0 | 0.00 | 0.00 | 0.00 | 32 | 927.8 |
| 20260904003017 | 84 | 329 | 2.0 | 13.0 | 0.00 | 0.00 | 0.00 | 33 | 927.7 |
| 20260904002617 | 85 | 306 | 7.0 | 13.0 | 0.00 | 0.00 | 0.00 | 32 | 927.6 |
| 20260904002018 | 85 | 360 | 6.0 | 11.0 | 0.00 | 0.00 | 0.00 | 33 | 927.5 |
| 20260904001517 | 85 | 326 | 2.0 | 6.0 | 0.00 | 0.00 | 0.00 | 32 | 927.5 |
| 20260904001016 | 85 | 32 | 1.0 | 6.0 | 0.00 | 0.00 | 0.00 | 32 | 927.5 |
| 20260904000517 | 85 | 38 | 3.0 | 7.0 | 0.00 | 0.00 | 0.00 | 33 | 927.4 |
| 20260904000030 | 85 | 39 | 4.0 | 7.0 | 0.00 | 0.00 | 0.00 | 33 | 927.4 |
| 20260903235517 | 84 | 342 | 2.0 | 8.0 | 0.00 | 0.00 | 0.00 | 33 | 927.3 |
| 20260903235017 | 83 | 339 | 6.0 | 8.0 | 0.00 | 0.00 | 0.00 | 34 | 927.4 |
| 20260903234529 | 82 | 313 | 2.0 | 6.0 | 0.00 | 0.00 | 0.00 | 37 | 927.5 |
| 20260903234016 | 82 | 313 | 3.0 | 6.0 | 0.00 | 0.00 | 0.00 | 36 | 927.4 |
| 20260903233519 | 83 | 304 | 3.0 | 5.0 | 0.00 | 0.00 | 0.00 | 37 | 927.4 |
| 20260903233020 | 84 | 279 | 1.0 | 5.0 | 0.00 | 0.00 | 0.00 | 36 | 927.3 |
| 20260903232616 | 84 | 277 | 0.0 | 1.0 | 0.00 | 0.00 | 0.00 | 32 | 927.3 |
| 20260903232016 | 84 | 277 | 0.0 | 2.0 | 0.00 | 0.00 | 0.00 | 31 | 927.3 |
| 20260903231516 | 84 | 277 | 0.0 | 5.0 | 0.00 | 0.00 | 0.00 | 32 | 927.3 |
| 20260903231016 | 83 | 277 | 1.0 | 5.0 | 0.00 | 0.00 | 0.00 | 32 | 927.2 |
| 20260903230514 | 83 | 59 | 0.0 | 5.0 | 0.00 | 0.00 | 0.00 | 32 | 927.2 |
| 20260903230015 | 83 | 59 | 2.0 | 6.0 | 0.00 | 0.00 | 0.00 | 32 | 927.1 |
| 20260903225514 | 83 | 336 | 3.0 | 6.0 | 0.00 | 0.00 | 0.00 | 32 | 927.1 |
| 20260903225014 | 83 | 307 | 4.0 | 7.0 | 0.00 | 0.00 | 0.00 | 32 | 927.0 |
| 20260903224513 | 84 | 316 | 5.0 | 9.0 | 0.00 | 0.00 | 0.00 | 32 | 927.0 |
| 20260903224014 | 84 | 316 | 5.0 | 9.0 | 0.00 | 0.00 | 0.00 | 31 | 927.0 |
| 20260903223513 | 84 | 286 | 1.0 | 8.0 | 0.00 | 0.00 | 0.00 | 31 | 926.9 |
| 20260903223016 | 84 | 254 | 5.0 | 9.0 | 0.00 | 0.00 | 0.00 | 31 | 926.9 |
| 20260903222615 | 84 | 270 | 7.0 | 10.0 | 0.00 | 0.00 | 0.00 | 32 | 926.9 |
| 20260903222011 | 84 | 282 | 7.0 | 10.0 | 0.00 | 0.00 | 0.00 | 30 | 926.9 |
| 20260903221512 | 84 | 266 | 7.0 | 10.0 | 0.00 | 0.00 | 0.00 | 30 | 926.9 |
| 20260903221012 | 84 | 312 | 5.0 | 13.0 | 0.00 | 0.00 | 0.00 | 30 | 926.8 |
| 20260903220510 | 85 | 312 | 6.0 | 13.0 | 0.00 | 0.00 | 0.00 | 31 | 926.7 |
| 20260903220013 | 84 | 300 | 5.0 | 16.0 | 0.00 | 0.00 | 0.00 | 32 | 926.8 |
| 20260903215510 | 84 | 333 | 9.0 | 16.0 | 0.00 | 0.00 | 0.00 | 32 | 926.7 |
| 20260903215009 | 85 | 336 | 5.0 | 10.0 | 0.00 | 0.00 | 0.00 | 31 | 926.6 |
| 20260903214510 | 85 | 145 | 2.0 | 6.0 | 0.00 | 0.00 | 0.00 | 31 | 926.6 |
| 20260903214008 | 85 | 142 | 1.0 | 6.0 | 0.00 | 0.00 | 0.00 | 33 | 926.5 |
| 20260903213509 | 84 | 261 | 1.0 | 5.0 | 0.00 | 0.00 | 0.00 | 33 | 926.5 |
| 20260903213007 | 84 | 261 | 1.0 | 4.0 | 0.00 | 0.00 | 0.00 | 36 | 926.6 |
| 20260903212610 | 83 | 261 | 0.0 | 6.0 | 0.00 | 0.00 | 0.00 | 37 | 926.6 |
| 20260903212008 | 83 | 261 | 0.0 | 6.0 | 0.00 | 0.00 | 0.00 | 37 | 926.5 |
| 20260903211512 | 84 | 262 | 1.0 | 5.0 | 0.00 | 0.00 | 0.00 | 36 | 926.5 |
| 20260903211011 | 84 | 236 | 1.0 | 7.0 | 0.00 | 0.00 | 0.00 | 37 | 926.6 |
| 20260903210506 | 84 | 236 | 4.0 | 8.0 | 0.00 | 0.00 | 0.00 | 37 | 926.6 |
| 20260903210006 | 83 | 302 | 5.0 | 11.0 | 0.00 | 0.00 | 0.00 | 38 | 926.6 |
| 20260903205505 | 84 | 5 | 6.0 | 14.0 | 0.00 | 0.00 | 0.00 | 38 | 926.6 |
| 20260903205004 | 83 | 355 | 7.0 | 14.0 | 0.00 | 0.00 | 0.00 | 41 | 926.6 |
| 20260903204504 | 84 | 250 | 3.0 | 8.0 | 0.00 | 0.00 | 0.00 | 40 | 926.5 |
| 20260903204006 | 83 | 120 | 2.0 | 8.0 | 0.00 | 0.00 | 0.00 | 41 | 926.5 |
| 20260903203504 | 82 | 355 | 0.0 | 8.0 | 0.00 | 0.00 | 0.00 | 42 | 926.6 |
| 20260903203008 | 81 | 355 | 5.0 | 8.0 | 0.00 | 0.00 | 0.00 | 44 | 926.6 |
| 20260903202603 | 82 | 344 | 7.0 | 14.0 | 0.00 | 0.00 | 0.00 | 44 | 926.6 |
| 20260903202002 | 82 | 345 | 7.0 | 14.0 | 0.00 | 0.00 | 0.00 | 45 | 926.7 |
| 20260903201501 | 83 | 336 | 10.0 | 14.0 | 0.00 | 0.00 | 0.00 | 41 | 926.7 |
| 20260903201001 | 83 | 9 | 7.0 | 9.0 | 0.00 | 0.00 | 0.00 | 44 | 926.6 |
| 20260903200502 | 82 | 344 | 4.0 | 10.0 | 0.00 | 0.00 | 0.00 | 43 | 926.7 |
| 20260903200001 | 82 | 343 | 4.0 | 10.0 | 0.00 | 0.00 | 0.00 | 44 | 926.7 |
| 20260903195501 | 83 | 5 | 5.0 | 10.0 | 0.00 | 0.00 | 0.00 | 44 | 926.7 |
| 20260903195101 | 83 | 315 | 3.0 | 9.0 | 0.00 | 0.00 | 0.00 | 44 | 926.7 |
| 20260903194601 | 83 | 264 | 2.0 | 9.0 | 0.00 | 0.00 | 0.00 | 44 | 926.8 |
| 20260903194058 | 82 | 267 | 5.0 | 9.0 | 0.00 | 0.00 | 0.00 | 47 | 926.8 |
| 20260903193557 | 82 | 238 | 5.0 | 9.0 | 0.00 | 0.00 | 0.00 | 46 | 926.8 |
| 20260903193059 | 81 | 271 | 4.0 | 9.0 | 0.00 | 0.00 | 0.00 | 49 | 926.8 |
| 20260903192553 | 80 | 248 | 4.0 | 7.0 | 0.00 | 0.00 | 0.00 | 52 | 926.8 |
| 20260903191600 | 79 | 20 | 2.0 | 9.0 | 0.00 | 0.00 | 0.00 | 54 | 926.7 |
| 20260903191053 | 79 | 348 | 5.0 | 9.0 | 0.00 | 0.00 | 0.00 | 55 | 926.7 |
| 20260903190555 | 79 | 355 | 4.0 | 10.0 | 0.00 | 0.00 | 0.00 | 55 | 926.7 |
| 20260903190052 | 79 | 17 | 7.0 | 10.0 | 0.00 | 0.00 | 0.00 | 56 | 926.6 |
| 20260903185553 | 79 | 14 | 2.0 | 7.0 | 0.00 | 0.00 | 0.00 | 56 | 926.7 |
| 20260903185051 | 79 | 98 | 3.0 | 8.0 | 0.00 | 0.00 | 0.00 | 55 | 926.6 |
| 20260903184551 | 79 | 116 | 3.0 | 8.0 | 0.00 | 0.00 | 0.00 | 56 | 926.7 |
| 20260903184050 | 78 | 88 | 2.0 | 6.0 | 0.00 | 0.00 | 0.00 | 59 | 926.7 |
| 20260903183549 | 77 | 254 | 0.0 | 6.0 | 0.00 | 0.00 | 0.00 | 59 | 926.9 |
| 20260903183052 | 77 | 260 | 3.0 | 7.0 | 0.00 | 0.00 | 0.00 | 60 | 927.0 |
| 20260903182548 | 76 | 140 | 3.0 | 8.0 | 0.00 | 0.00 | 0.00 | 60 | 927.0 |
| 20260903181547 | 76 | 228 | 3.0 | 7.0 | 0.00 | 0.00 | 0.00 | 61 | 927.2 |
| 20260903181052 | 76 | 189 | 0.0 | 7.0 | 0.00 | 0.00 | 0.00 | 63 | 927.2 |
| 20260903180546 | 75 | 171 | 4.0 | 7.0 | 0.00 | 0.00 | 0.00 | 63 | 927.3 |
| 20260903180044 | 75 | 94 | 1.0 | 7.0 | 0.00 | 0.00 | 0.00 | 64 | 927.2 |
| 20260903175548 | 75 | 94 | 4.0 | 8.0 | 0.00 | 0.00 | 0.00 | 64 | 927.2 |
| 20260903175043 | 74 | 109 | 5.0 | 9.0 | 0.00 | 0.00 | 0.00 | 65 | 927.3 |
| 20260903174543 | 74 | 153 | 3.0 | 10.0 | 0.00 | 0.00 | 0.00 | 64 | 927.3 |
| 20260903174046 | 74 | 143 | 5.0 | 12.0 | 0.00 | 0.00 | 0.00 | 64 | 927.3 |
| 20260903173544 | 75 | 109 | 6.0 | 11.0 | 0.00 | 0.00 | 0.00 | 64 | 927.5 |
| 20260903173042 | 74 | 115 | 7.0 | 11.0 | 0.00 | 0.00 | 0.00 | 65 | 927.5 |
| 20260903172541 | 74 | 144 | 7.0 | 12.0 | 0.00 | 0.00 | 0.00 | 65 | 927.5 |
| 20260903171556 | 72 | 118 | 6.0 | 9.0 | 0.00 | 0.00 | 0.00 | 68 | 927.5 |
| 20260903171039 | 72 | 158 | 5.0 | 10.0 | 0.00 | 0.00 | 0.00 | 68 | 927.6 |
| 20260903170542 | 72 | 134 | 7.0 | 10.0 | 0.00 | 0.00 | 0.00 | 68 | 927.6 |
| 20260903170039 | 72 | 360 | 5.0 | 11.0 | 0.00 | 0.00 | 0.00 | 69 | 927.6 |
| 20260903165539 | 72 | 360 | 6.0 | 13.0 | 0.00 | 0.00 | 0.00 | 69 | 927.6 |
| 20260903165040 | 71 | 360 | 6.0 | 11.0 | 0.00 | 0.00 | 0.00 | 70 | 927.6 |
| 20260903164551 | 71 | 360 | 7.0 | 11.0 | 0.00 | 0.00 | 0.00 | 71 | 927.7 |
| 20260903164039 | 70 | 360 | 4.0 | 9.0 | 0.00 | 0.00 | 0.00 | 72 | 927.7 |
| 20260903163538 | 70 | 360 | 6.0 | 9.0 | 0.00 | 0.00 | 0.00 | 72 | 927.8 |
| 20260903163039 | 70 | 360 | 5.0 | 7.0 | 0.00 | 0.00 | 0.00 | 73 | 927.7 |
| 20260903162638 | 69 | 360 | 2.0 | 7.0 | 0.00 | 0.00 | 0.00 | 73 | 927.8 |
| 20260903161538 | 69 | 360 | 5.0 | 8.0 | 0.00 | 0.00 | 0.00 | 73 | 927.3 |
| 20260903161037 | 69 | 360 | 4.0 | 8.0 | 0.00 | 0.00 | 0.00 | 73 | 927.3 |
| 20260903160538 | 69 | 226 | 1.0 | 6.0 | 0.00 | 0.00 | 0.00 | 74 | 927.6 |
| 20260903160038 | 68 | 225 | 0.0 | 8.0 | 0.00 | 0.00 | 0.00 | 74 | 927.9 |
| 20260903155538 | 68 | 242 | 5.0 | 8.0 | 0.00 | 0.00 | 0.00 | 75 | 928.2 |
| 20260903155037 | 67 | 144 | 2.0 | 8.0 | 0.00 | 0.00 | 0.00 | 75 | 927.8 |
| 20260903154547 | 67 | 153 | 5.0 | 9.0 | 0.00 | 0.00 | 0.00 | 75 | 928.1 |
| 20260903154039 | 67 | 182 | 5.0 | 8.0 | 0.00 | 0.00 | 0.00 | 76 | 928.2 |
| 20260903153536 | 66 | 235 | 1.0 | 6.0 | 0.00 | 0.00 | 0.00 | 77 | 928.2 |
| 20260903153036 | 66 | 237 | 4.0 | 6.0 | 0.00 | 0.00 | 0.00 | 76 | 928.5 |
| 20260903152536 | 66 | 238 | 2.0 | 3.0 | 0.00 | 0.00 | 0.00 | 77 | 928.0 |
| 20260903151536 | 66 | 238 | 0.0 | 7.0 | 0.00 | 0.00 | 0.00 | 77 | 928.0 |
| 20260903151035 | 66 | 238 | 1.0 | 9.0 | 0.00 | 0.00 | 0.00 | 77 | 927.8 |
| 20260903150535 | 66 | 360 | 5.0 | 9.0 | 0.00 | 0.00 | 0.00 | 78 | 928.2 |
| 20260903150035 | 66 | 360 | 6.0 | 8.0 | 0.00 | 0.00 | 0.00 | 78 | 928.1 |
| 20260903145534 | 66 | 360 | 2.0 | 7.0 | 0.00 | 0.00 | 0.00 | 78 | 927.7 |
| 20260903145035 | 65 | 360 | 4.0 | 9.0 | 0.00 | 0.00 | 0.00 | 79 | 927.9 |
| 20260903144543 | 65 | 360 | 4.0 | 10.0 | 0.00 | 0.00 | 0.00 | 80 | 926.9 |
| 20260903144035 | 64 | 259 | 2.0 | 10.0 | 0.00 | 0.00 | 0.00 | 80 | 927.5 |
| 20260903143534 | 64 | 360 | 4.0 | 8.0 | 0.00 | 0.00 | 0.00 | 81 | 927.9 |
| 20260903143043 | 64 | 360 | 0.0 | 3.0 | 0.00 | 0.00 | 0.00 | 81 | 927.4 |
| 20260903142533 | 63 | 360 | 3.0 | 9.0 | 0.00 | 0.00 | 0.00 | 83 | 927.9 |
| 20260903141535 | 63 | 260 | 4.0 | 9.0 | 0.00 | 0.00 | 0.00 | 83 | 928.1 |
| 20260903141036 | 62 | 232 | 5.0 | 9.0 | 0.00 | 0.00 | 0.00 | 83 | 928.0 |
| 20260903140532 | 62 | 269 | 1.0 | 7.0 | 0.00 | 0.00 | 0.00 | 83 | 927.9 |
| 20260903140040 | 62 | 276 | 5.0 | 8.0 | 0.00 | 0.00 | 0.00 | 83 | 927.7 |
| 20260903135531 | 62 | 313 | 3.0 | 10.0 | 0.00 | 0.00 | 0.00 | 83 | 927.5 |
| 20260903135035 | 62 | 297 | 7.0 | 11.0 | 0.00 | 0.00 | 0.00 | 83 | 927.5 |
| 20260903134530 | 62 | 223 | 5.0 | 11.0 | 0.00 | 0.00 | 0.00 | 83 | 927.1 |
| 20260903134031 | 62 | 134 | 5.0 | 15.0 | 0.00 | 0.00 | 0.00 | 83 | 926.5 |
| 20260903133534 | 62 | 90 | 9.0 | 15.0 | 0.00 | 0.00 | 0.00 | 84 | 926.1 |
| 20260903133030 | 60 | 67 | 6.0 | 15.0 | 0.00 | 0.00 | 0.00 | 85 | 926.5 |
| 20260903132630 | 60 | 260 | 7.0 | 15.0 | 0.00 | 0.00 | 0.00 | 85 | 927.1 |
| 20260903131529 | 61 | 292 | 5.0 | 8.0 | 0.00 | 0.00 | 0.00 | 84 | 927.5 |
| 20260903131029 | 60 | 105 | 4.0 | 8.0 | 0.00 | 0.00 | 0.00 | 84 | 927.1 |
| 20260903130531 | 60 | 167 | 2.0 | 5.0 | 0.00 | 0.00 | 0.00 | 83 | 927.4 |
| 20260903130027 | 61 | 126 | 1.0 | 3.0 | 0.00 | 0.00 | 0.00 | 83 | 927.1 |
| 20260903125526 | 61 | 126 | 0.0 | 2.0 | 0.00 | 0.00 | 0.00 | 83 | 926.8 |
| 20260903125026 | 61 | 360 | 1.0 | 2.0 | 0.00 | 0.00 | 0.00 | 82 | 926.6 |
| 20260903124525 | 61 | 360 | 0.0 | 2.0 | 0.00 | 0.00 | 0.00 | 82 | 926.4 |
| 20260903124024 | 61 | 360 | 1.0 | 4.0 | 0.00 | 0.00 | 0.00 | 81 | 926.3 |
| 20260903123525 | 61 | 360 | 0.0 | 4.0 | 0.00 | 0.00 | 0.00 | 80 | 926.4 |
| 20260903123024 | 62 | 360 | 2.0 | 4.0 | 0.00 | 0.00 | 0.00 | 80 | 926.8 |
| 20260903122523 | 62 | 360 | 1.0 | 5.0 | 0.00 | 0.00 | 0.00 | 81 | 926.8 |
| 20260903121530 | 62 | 360 | 1.0 | 5.0 | 0.00 | 0.00 | 0.00 | 81 | 926.4 |
| 20260903121020 | 62 | 360 | 0.0 | 4.0 | 0.00 | 0.00 | 0.00 | 80 | 926.4 |
| 20260903120519 | 62 | 360 | 0.0 | 7.0 | 0.00 | 0.00 | 0.00 | 79 | 926.4 |
| 20260903120035 | 63 | 360 | 1.0 | 8.0 | 0.00 | 0.00 | 0.00 | 79 | 926.4 |
| 20260903115517 | 63 | 360 | 3.0 | 9.0 | 0.00 | 0.00 | 0.00 | 79 | 926.6 |
| 20260903115017 | 63 | 360 | 5.0 | 9.0 | 0.00 | 0.00 | 0.00 | 79 | 926.7 |
| 20260903114517 | 63 | 360 | 5.0 | 8.0 | 0.00 | 0.00 | 0.00 | 79 | 926.6 |
| 20260903114016 | 63 | 360 | 5.0 | 8.0 | 0.00 | 0.00 | 0.00 | 79 | 926.7 |
| 20260903113516 | 63 | 360 | 5.0 | 8.0 | 0.00 | 0.00 | 0.00 | 79 | 926.6 |
| 20260903113021 | 63 | 360 | 5.0 | 7.0 | 0.00 | 0.00 | 0.00 | 78 | 926.6 |
| 20260903112516 | 63 | 360 | 2.0 | 4.0 | 0.00 | 0.00 | 0.00 | 78 | 926.7 |
| 20260903111515 | 63 | 360 | 0.0 | 4.0 | 0.00 | 0.00 | 0.00 | 77 | 926.8 |
| 20260903111017 | 64 | 360 | 1.0 | 7.0 | 0.00 | 0.00 | 0.00 | 77 | 926.7 |
| 20260903110515 | 64 | 360 | 3.0 | 9.0 | 0.00 | 0.00 | 0.00 | 76 | 926.5 |
| 20260903110014 | 64 | 360 | 4.0 | 9.0 | 0.00 | 0.00 | 0.00 | 76 | 926.5 |
| 20260903105514 | 64 | 360 | 4.0 | 12.0 | 0.00 | 0.00 | 0.00 | 75 | 926.5 |
| 20260903105014 | 64 | 360 | 7.0 | 15.0 | 0.00 | 0.00 | 0.00 | 75 | 926.4 |
| 20260903104514 | 64 | 360 | 10.0 | 18.0 | 0.00 | 0.00 | 0.00 | 75 | 926.0 |
| 20260903104014 | 64 | 360 | 10.0 | 18.0 | 0.00 | 0.00 | 0.00 | 75 | 925.9 |
| 20260903103514 | 64 | 360 | 8.0 | 14.0 | 0.00 | 0.00 | 0.00 | 75 | 925.8 |
| 20260903103013 | 64 | 360 | 9.0 | 12.0 | 0.00 | 0.00 | 0.00 | 75 | 925.7 |
| 20260903102513 | 64 | 360 | 6.0 | 15.0 | 0.00 | 0.00 | 0.00 | 74 | 925.8 |
| 20260903101521 | 64 | 360 | 9.0 | 18.0 | 0.00 | 0.00 | 0.00 | 74 | 925.6 |
| 20260903101011 | 64 | 360 | 11.0 | 21.0 | 0.00 | 0.00 | 0.00 | 74 | 925.5 |
| 20260903100511 | 64 | 360 | 13.0 | 21.0 | 0.00 | 0.00 | 0.00 | 74 | 925.1 |
| 20260903100020 | 64 | 360 | 12.0 | 20.0 | 0.00 | 0.00 | 0.00 | 74 | 925.1 |
| 20260903095509 | 64 | 360 | 11.0 | 20.0 | 0.00 | 0.00 | 0.00 | 73 | 925.2 |
| 20260903095007 | 65 | 360 | 11.0 | 19.0 | 0.00 | 0.00 | 0.00 | 73 | 925.4 |
| 20260903094516 | 65 | 360 | 12.0 | 19.0 | 0.00 | 0.00 | 0.00 | 72 | 925.2 |
| 20260903094005 | 65 | 360 | 9.0 | 16.0 | 0.00 | 0.00 | 0.00 | 73 | 925.2 |
| 20260903093505 | 65 | 360 | 9.0 | 14.0 | 0.00 | 0.00 | 0.00 | 72 | 925.1 |
| 20260903093003 | 65 | 360 | 9.0 | 19.0 | 0.00 | 0.00 | 0.00 | 72 | 924.9 |
| 20260903092506 | 65 | 360 | 8.0 | 19.0 | 0.00 | 0.00 | 0.00 | 71 | 924.9 |
| 20260903091504 | 65 | 360 | 9.0 | 19.0 | 0.00 | 0.00 | 0.00 | 71 | 925.0 |
| 20260903091003 | 66 | 360 | 10.0 | 18.0 | 0.00 | 0.00 | 0.00 | 71 | 925.1 |
| 20260903090502 | 66 | 360 | 8.0 | 18.0 | 0.00 | 0.00 | 0.00 | 70 | 925.3 |
| 20260903090003 | 66 | 360 | 10.0 | 18.0 | 0.00 | 0.00 | 0.00 | 70 | 925.1 |
| 20260903085502 | 66 | 360 | 10.0 | 16.0 | 0.00 | 0.00 | 0.00 | 69 | 925.4 |
| 20260903085002 | 67 | 360 | 8.0 | 13.0 | 0.00 | 0.00 | 0.00 | 69 | 925.7 |
| 20260903084502 | 67 | 360 | 6.0 | 12.0 | 0.00 | 0.00 | 0.00 | 69 | 925.8 |
| 20260903084002 | 66 | 360 | 7.0 | 12.0 | 0.00 | 0.00 | 0.00 | 69 | 925.8 |
| 20260903083505 | 66 | 360 | 8.0 | 13.0 | 0.00 | 0.00 | 0.00 | 70 | 925.8 |
| 20260903083002 | 66 | 360 | 7.0 | 13.0 | 0.00 | 0.00 | 0.00 | 70 | 926.0 |
| 20260903082501 | 67 | 360 | 6.0 | 9.0 | 0.00 | 0.00 | 0.00 | 69 | 926.1 |
| 20260903081502 | 66 | 360 | 5.0 | 10.0 | 0.00 | 0.00 | 0.00 | 70 | 926.5 |
| 20260903081000 | 66 | 360 | 7.0 | 10.0 | 0.00 | 0.00 | 0.00 | 71 | 926.4 |
| 20260903080500 | 65 | 360 | 7.0 | 11.0 | 0.00 | 0.00 | 0.00 | 72 | 926.5 |
| 20260903080002 | 65 | 360 | 7.0 | 13.0 | 0.00 | 0.00 | 0.00 | 72 | 926.7 |
| 20260903075600 | 66 | 360 | 9.0 | 13.0 | 0.00 | 0.00 | 0.00 | 72 | 926.8 |
| 20260903075100 | 66 | 360 | 9.0 | 14.0 | 0.00 | 0.00 | 0.00 | 72 | 926.8 |
| 20260903074559 | 66 | 360 | 10.0 | 15.0 | 0.00 | 0.00 | 0.00 | 71 | 927.0 |
| 20260903074059 | 66 | 346 | 9.0 | 18.0 | 0.00 | 0.00 | 0.00 | 72 | 926.9 |
| 20260903073558 | 66 | 355 | 13.0 | 18.0 | 0.00 | 0.00 | 0.00 | 71 | 926.9 |
| 20260903073056 | 66 | 360 | 11.0 | 18.0 | 0.00 | 0.00 | 0.00 | 70 | 926.7 |
| 20260903072555 | 67 | 17 | 12.0 | 21.0 | 0.00 | 0.00 | 0.00 | 69 | 926.6 |
| 20260903071600 | 69 | 360 | 14.0 | 23.0 | 0.00 | 0.00 | 0.00 | 65 | 926.6 |
| 20260903071052 | 70 | 343 | 15.0 | 23.0 | 0.00 | 0.00 | 0.00 | 64 | 926.6 |
| 20260903070553 | 72 | 330 | 15.0 | 21.0 | 0.00 | 0.00 | 0.00 | 62 | 926.4 |
| 20260903070050 | 73 | 321 | 5.0 | 10.0 | 0.00 | 0.00 | 0.00 | 70 | 926.3 |
| 20260903065553 | 73 | 281 | 0.0 | 5.0 | 0.00 | 0.00 | 0.00 | 71 | 926.3 |
| 20260903065049 | 73 | 282 | 1.0 | 7.0 | 0.00 | 0.00 | 0.00 | 71 | 926.4 |
| 20260903064555 | 73 | 282 | 4.0 | 11.0 | 0.00 | 0.00 | 0.00 | 70 | 926.4 |
| 20260903064050 | 73 | 277 | 8.0 | 11.0 | 0.00 | 0.00 | 0.00 | 70 | 926.4 |
| 20260903063549 | 73 | 300 | 1.0 | 19.0 | 0.00 | 0.00 | 0.00 | 70 | 926.3 |
| 20260903063047 | 73 | 331 | 10.0 | 19.0 | 0.00 | 0.00 | 0.00 | 71 | 926.3 |
| 20260903062546 | 72 | 263 | 8.0 | 16.0 | 0.00 | 0.00 | 0.00 | 72 | 926.3 |
| 20260903061547 | 72 | 117 | 10.0 | 15.0 | 0.00 | 0.00 | 0.00 | 71 | 924.7 |
| 20260903061049 | 72 | 113 | 11.0 | 15.0 | 0.00 | 0.00 | 0.00 | 71 | 924.9 |
| 20260903060551 | 72 | 132 | 10.0 | 18.0 | 0.00 | 0.00 | 0.00 | 71 | 924.8 |
| 20260903060044 | 72 | 133 | 11.0 | 20.0 | 0.00 | 0.00 | 0.00 | 71 | 924.9 |
| 20260903055544 | 72 | 131 | 12.0 | 20.0 | 0.00 | 0.00 | 0.00 | 71 | 924.7 |
| 20260903055047 | 72 | 117 | 11.0 | 16.0 | 0.00 | 0.00 | 0.00 | 71 | 924.6 |
| 20260903054544 | 72 | 121 | 10.0 | 15.0 | 0.00 | 0.00 | 0.00 | 71 | 924.6 |
| 20260903054043 | 72 | 116 | 10.0 | 18.0 | 0.00 | 0.00 | 0.00 | 71 | 924.6 |
| 20260903053543 | 72 | 109 | 12.0 | 18.0 | 0.00 | 0.00 | 0.00 | 71 | 924.6 |
| 20260903053042 | 71 | 116 | 11.0 | 18.0 | 0.00 | 0.00 | 0.00 | 71 | 924.6 |
| 20260903052546 | 71 | 119 | 10.0 | 18.0 | 0.00 | 0.00 | 0.00 | 71 | 924.5 |
| 20260903051558 | 71 | 109 | 10.0 | 16.0 | 0.00 | 0.00 | 0.00 | 72 | 924.3 |
| 20260903051041 | 71 | 113 | 12.0 | 18.0 | 0.00 | 0.00 | 0.00 | 71 | 924.3 |
| 20260903050541 | 71 | 100 | 11.0 | 16.0 | 0.00 | 0.00 | 0.00 | 72 | 924.3 |
| 20260903050141 | 71 | 123 | 12.0 | 18.0 | 0.00 | 0.00 | 0.00 | 71 | 924.4 |
| 20260903045541 | 72 | 117 | 13.0 | 19.0 | 0.00 | 0.00 | 0.00 | 71 | 924.4 |
| 20260903045040 | 72 | 115 | 12.0 | 19.0 | 0.00 | 0.00 | 0.00 | 72 | 924.5 |
| 20260903044543 | 72 | 104 | 12.0 | 16.0 | 0.00 | 0.00 | 0.00 | 72 | 924.6 |
| 20260903044041 | 72 | 108 | 11.0 | 15.0 | 0.00 | 0.00 | 0.00 | 72 | 924.7 |
| 20260903043538 | 72 | 110 | 12.0 | 15.0 | 0.00 | 0.00 | 0.00 | 73 | 924.9 |
| 20260903043126 | 72 | 123 | 10.0 | 15.0 | 0.00 | 0.00 | 0.00 | 72 | 925.0 |
| 20260903042537 | 72 | 127 | 10.0 | 14.0 | 0.00 | 0.00 | 0.00 | 72 | 925.2 |
| 20260903041538 | 73 | 119 | 10.0 | 14.0 | 0.00 | 0.00 | 0.00 | 71 | 925.3 |
| 20260903041039 | 72 | 119 | 9.0 | 13.0 | 0.00 | 0.00 | 0.00 | 72 | 925.3 |
| 20260903040537 | 72 | 122 | 9.0 | 13.0 | 0.00 | 0.00 | 0.00 | 71 | 925.3 |
| 20260903040038 | 72 | 113 | 9.0 | 13.0 | 0.00 | 0.00 | 0.00 | 71 | 925.5 |
| 20260903035537 | 72 | 102 | 8.0 | 13.0 | 0.00 | 0.00 | 0.00 | 71 | 925.4 |
| 20260903035036 | 73 | 116 | 10.0 | 13.0 | 0.00 | 0.00 | 0.00 | 71 | 925.4 |
| 20260903034541 | 73 | 104 | 9.0 | 13.0 | 0.00 | 0.00 | 0.00 | 71 | 925.4 |
| 20260903034036 | 73 | 109 | 9.0 | 12.0 | 0.00 | 0.00 | 0.00 | 71 | 925.4 |
| 20260903033537 | 73 | 122 | 8.0 | 13.0 | 0.00 | 0.00 | 0.00 | 70 | 925.4 |
| 20260903033036 | 74 | 108 | 9.0 | 13.0 | 0.00 | 0.00 | 0.00 | 69 | 925.5 |
| 20260903032536 | 74 | 121 | 9.0 | 15.0 | 0.00 | 0.00 | 0.00 | 69 | 925.6 |
| 20260903031536 | 74 | 103 | 10.0 | 15.0 | 0.00 | 0.00 | 0.00 | 68 | 925.4 |
| 20260903031037 | 74 | 111 | 9.0 | 14.0 | 0.00 | 0.00 | 0.00 | 68 | 925.3 |
| 20260903030535 | 75 | 113 | 9.0 | 15.0 | 0.00 | 0.00 | 0.00 | 67 | 925.3 |
| 20260903030035 | 75 | 116 | 10.0 | 15.0 | 0.00 | 0.00 | 0.00 | 67 | 925.3 |
| 20260903025535 | 75 | 113 | 10.0 | 15.0 | 0.00 | 0.00 | 0.00 | 66 | 925.2 |
| 20260903025035 | 75 | 115 | 10.0 | 15.0 | 0.00 | 0.00 | 0.00 | 66 | 925.2 |
| 20260903024535 | 75 | 123 | 10.0 | 16.0 | 0.00 | 0.00 | 0.00 | 66 | 925.3 |
| 20260903024035 | 76 | 110 | 12.0 | 16.0 | 0.00 | 0.00 | 0.00 | 66 | 925.3 |
| 20260903023534 | 76 | 113 | 12.0 | 16.0 | 0.00 | 0.00 | 0.00 | 65 | 925.4 |
| 20260903023035 | 76 | 123 | 11.0 | 16.0 | 0.00 | 0.00 | 0.00 | 65 | 925.4 |